Temp
-9 -9 -9 -9 -9 -8 -8 -8 -7 -9 -7 -7 -8 -9 -7 -8 -8 -7 -7 -6 -7 -7 -7 -7 -8 -8 -8 -8 -9 -9 -9 -10 -10 -10 -11 -11 -11 -11 -11 -11 -11 -11 -11 -11
-9 -9 -9 -7 -8 -8 -9 -8 -8 -9 -7 -7 -8 -8 -8 -7 -8 -7 -7 -7 -7 -7 -7 -8 -8 -8 -8 -8 -9 -9 -9 -10 -10 -10 -11 -11 -11 -11 -11 -11 -11 -11 -11 -11
-9 -9 -8 -7 -8 -7 -9 -8 -9 -9 -8 -7 -7 -8 -8 -8 -7 -7 -7 -7 -7 -7 -7 -7 -8 -8 -8 -8 -9 -9 -9 -10 -10 -10 -11 -11 -11 -12 -12 -11 -11 -11 -11 -11
-9 -8 -8 -8 -9 -9 -8 -8 -9 -9 -9 -8 -8 -9 -8 -8 -7 -8 -7 -7 -8 -7 -7 -8 -8 -8 -8 -9 -9 -9 -10 -10 -10 -10 -11 -11 -11 -12 -12 -12 -12 -12 -12 -12
-9 -8 -8 -9 -8 -9 -9 -9 -8 -9 -8 -8 -9 -8 -8 -9 -7 -7 -7 -8 -8 -8 -8 -8 -8 -8 -8 -9 -9 -9 -9 -10 -10 -10 -11 -11 -12 -12 -12 -12 -12 -12 -12 -12
-9 -9 -8 -8 -8 -8 -8 -9 -8 -8 -7 -8 -8 -8 -9 -7 -8 -9 -7 -8 -8 -8 -8 -8 -8 -8 -9 -9 -9 -10 -10 -10 -10 -10 -11 -11 -12 -12 -12 -12 -12 -12 -12 -12
-9 -8 -9 -8 -7 -9 -9 -9 -9 -8 -9 -8 -9 -8 -9 -8 -9 -8 -9 -8 -8 -8 -8 -8 -8 -9 -9 -9 -9 -10 -10 -10 -10 -11 -11 -11 -11 -12 -13 -13 -13 -13 -13 -13
-9 -9 -9 -9 -8 -9 -9 -9 -9 -8 -8 -8 -8 -8 -7 -8 -8 -8 -8 -9 -9 -9 -9 -8 -8 -9 -9 -9 -10 -10 -10 -10 -11 -11 -11 -11 -12 -12 -13 -13 -13 -13 -13 -13
-9 -9 -8 -9 -9 -9 -9 -8 -9 -9 -9 -9 -8 -9 -9 -9 -9 -8 -9 -9 -9 -9 -9 -9 -9 -9 -9 -9 -10 -10 -10 -11 -11 -11 -11 -11 -12 -12 -13 -13 -13 -14 -14 -13
-9 -9 -9 -8 -9 -9 -9 -9 -9 -9 -8 -8 -8 -8 -8 -9 -9 -9 -9 -9 -9 -9 -10 -10 -9 -10 -10 -10 -10 -10 -10 -11 -11 -11 -11 -12 -12 -12 -13 -13 -14 -14 -14 -14
-9 -9 -9 -9 -9 -8 -9 -9 -9 -8 -8 -9 -9 -9 -9 -8 -9 -9 -10 -11 -10 -10 -9 -10 -10 -10 -10 -10 -10 -11 -11 -11 -11 -12 -12 -12 -12 -12 -13 -13 -13 -14 -14 -14
-9 -9 -8 -9 -9 -9 -8 -9 -9 -10 -9 -9 -9 -9 -8 -9 -9 -9 -10 -11 -10 -10 -11 -11 -10 -10 -10 -10 -11 -11 -11 -11 -11 -11 -12 -12 -12 -12 -13 -13 -14 -14 -14 -14
-8 -9 -8 -8 -8 -9 -9 -10 -9 -8 -9 -10 -9 -9 -9 -10 -9 -9 -10 -8 -11 -10 -10 -11 -11 -10 -11 -11 -11 -11 -11 -12 -12 -12 -12 -12 -12 -12 -13 -13 -14 -14 -14 -14
-8 -8 -8 -8 -9 -9 -9 -9 -8 -9 -9 -8 -10 -9 -9 -10 -10 -10 -10 -10 -10 -10 -10 -10 -11 -11 -11 -12 -11 -11 -11 -12 -12 -12 -12 -12 -12 -12 -13 -13 -14 -14 -14 -14
-8 -8 -9 -9 -9 -9 -9 -9 -10 -9 -10 -10 -9 -10 -10 -9 -9 -9 -10 -9 -10 -11 -11 -12 -11 -12 -12 -12 -12 -11 -12 -12 -12 -12 -12 -12 -12 -13 -14 -14 -14 -14 -14 -14
-8 -9 -9 -9 -9 -9 -8 -9 -9 -10 -9 -10 -9 -10 -9 -10 -9 -9 -10 -9 -11 -10 -11 -12 -12 -12 -12 -11 -11 -11 -12 -12 -12 -12 -13 -13 -13 -14 -14 -14 -14 -14 -15 -15
-9 -9 -9 -9 -10 -9 -9 -9 -10 -10 -9 -9 -9 -10 -10 -9 -10 -9 -9 -11 -11 -11 -11 -11 -12 -12 -12 -11 -11 -12 -12 -12 -12 -12 -13 -13 -13 -14 -14 -14 -14 -14 -15 -15
-9 -9 -9 -9 -9 -10 -10 -9 -9 -10 -10 -11 -9 -10 -11 -11 -9 -9 -9 -10 -10 -10 -10 -11 -11 -11 -11 -11 -12 -12 -12 -12 -13 -12 -12 -13 -14 -14 -14 -14 -15 -15 -15 -15
-9 -9 -9 -10 -10 -9 -10 -9 -10 -10 -10 -10 -9 -10 -10 -11 -10 -9 -10 -10 -10 -10 -10 -11 -11 -11 -12 -12 -12 -12 -13 -13 -13 -13 -13 -14 -14 -14 -14 -15 -15 -15 -15 -17
-10 -9 -10 -10 -9 -10 -10 -10 -9 -10 -11 -10 -10 -10 -10 -10 -10 -10 -10 -10 -11 -11 -11 -11 -11 -11 -12 -12 -12 -13 -13 -13 -13 -13 -14 -14 -14 -14 -15 -15 -15 -16 -16 -17
-10 -10 -10 -11 -10 -10 -10 -10 -9 -10 -8 -10 -10 -10 -10 -10 -11 -11 -11 -11 -11 -11 -11 -11 -12 -12 -12 -12 -13 -13 -13 -14 -14 -13 -14 -14 -15 -15 -15 -15 -16 -16 -16 -17
-11 -11 -11 -10 -10 -10 -9 -9 -9 -10 -11 -11 -10 -10 -11 -10 -11 -11 -11 -11 -11 -11 -11 -11 -11 -12 -12 -13 -13 -14 -14 -14 -14 -14 -14 -14 -15 -15 -16 -16 -16 -16 -17 -17
-10 -11 -10 -11 -11 -10 -10 -9 -11 -11 -11 -11 -11 -11 -11 -11 -11 -11 -11 -11 -11 -11 -11 -11 -11 -12 -12 -13 -14 -14 -14 -15 -15 -15 -15 -15 -15 -16 -16 -16 -16 -16 -16 -16
-11 -11 -11 -11 -11 -10 -11 -11 -10 -11 -11 -11 -11 -11 -11 -11 -12 -12 -12 -12 -11 -12 -11 -12 -12 -12 -13 -13 -14 -14 -14 -15 -15 -15 -15 -15 -16 -16 -16 -16 -16 -16 -16 -15
-11 -10 -10 -10 -10 -11 -11 -9 -8 -9 -11 -11 -11 -11 -11 -11 -12 -12 -12 -13 -12 -13 -12 -12 -12 -13 -13 -13 -13 -13 -15 -15 -15 -15 -15 -16 -16 -16 -16 -15 -15 -15 -15 -15
-10 -11 -12 -11 -11 -11 -10 -9 -10 -10 -11 -11 -11 -11 -11 -12 -12 -12 -13 -13 -13 -13 -13 -13 -13 -13 -13 -14 -14 -14 -14 -15 -15 -15 -15 -16 -15 -15 -15 -15 -15 -15 -15 -15
Height
5949 5952 5952 5956 5950 5956 5955 5951 5949 5946 5943 5941 5937 5933 5929 5927 5925 5921 5916 5916 5912 5910 5906 5901 5898 5894 5891 5886 5881 5877 5872 5868 5863 5859 5855 5851 5846 5841 5836 5831 5826 5821 5816 5810
5958 5959 5956 5957 5957 5954 5946 5947 5946 5944 5943 5941 5936 5935 5928 5928 5926 5922 5919 5915 5912 5909 5906 5902 5899 5895 5890 5886 5880 5874 5870 5866 5862 5857 5853 5848 5843 5838 5833 5829 5824 5818 5812 5807
5957 5959 5957 5957 5955 5953 5951 5950 5946 5947 5942 5939 5939 5933 5930 5928 5925 5921 5918 5916 5912 5908 5905 5902 5899 5894 5890 5886 5880 5875 5869 5864 5860 5855 5850 5845 5841 5838 5833 5827 5821 5815 5809 5804
5958 5960 5958 5958 5955 5951 5950 5948 5948 5947 5941 5930 5934 5936 5930 5928 5926 5921 5917 5914 5910 5907 5903 5900 5896 5892 5888 5884 5879 5874 5869 5865 5859 5854 5849 5843 5838 5833 5829 5824 5818 5812 5806 5801
5958 5960 5958 5957 5950 5953 5953 5947 5944 5942 5941 5936 5932 5934 5929 5924 5921 5920 5918 5914 5911 5906 5903 5899 5894 5891 5888 5883 5878 5873 5867 5862 5857 5852 5847 5841 5837 5832 5826 5821 5816 5810 5805 5798
5954 5954 5955 5954 5952 5953 5950 5946 5943 5937 5936 5925 5929 5932 5927 5923 5924 5921 5915 5913 5909 5905 5901 5895 5892 5888 5885 5879 5876 5871 5866 5861 5855 5850 5845 5839 5834 5829 5824 5818 5813 5807 5802 5797
5953 5954 5956 5954 5953 5950 5947 5946 5944 5937 5936 5933 5930 5935 5928 5928 5925 5921 5916 5911 5909 5904 5898 5896 5891 5886 5883 5877 5872 5869 5864 5859 5853 5849 5843 5837 5832 5826 5821 5816 5811 5805 5799 5793
5953 5952 5950 5952 5953 5951 5948 5947 5940 5939 5940 5939 5934 5930 5929 5925 5923 5920 5918 5912 5904 5902 5895 5892 5890 5887 5882 5875 5870 5865 5861 5855 5850 5846 5840 5834 5828 5823 5818 5813 5808 5802 5796 5791
5949 5945 5947 5947 5949 5950 5948 5947 5944 5940 5939 5938 5934 5920 5924 5922 5916 5915 5911 5910 5905 5898 5894 5887 5886 5881 5875 5872 5867 5862 5856 5852 5847 5842 5837 5831 5825 5819 5814 5808 5803 5799 5793 5788
5948 5944 5940 5941 5946 5948 5947 5943 5941 5938 5935 5933 5933 5930 5926 5920 5914 5910 5906 5906 5903 5898 5893 5888 5882 5878 5872 5869 5864 5858 5853 5849 5844 5839 5834 5828 5823 5816 5811 5806 5801 5795 5790 5785
5947 5946 5946 5942 5943 5943 5934 5933 5933 5934 5934 5931 5931 5929 5920 5917 5906 5911 5903 5902 5899 5895 5888 5881 5878 5877 5870 5866 5861 5855 5849 5844 5840 5835 5829 5823 5817 5811 5806 5801 5797 5792 5787 5781
5942 5941 5942 5944 5944 5935 5934 5936 5934 5927 5932 5926 5929 5926 5919 5912 5908 5907 5896 5899 5896 5891 5884 5878 5872 5874 5867 5862 5854 5850 5843 5838 5833 5829 5825 5819 5813 5808 5802 5797 5792 5788 5784 5779
5936 5936 5937 5940 5943 5933 5932 5933 5931 5929 5924 5922 5922 5925 5913 5905 5904 5895 5886 5895 5889 5888 5881 5876 5867 5867 5866 5857 5852 5845 5841 5835 5830 5825 5820 5816 5810 5804 5798 5793 5788 5783 5779 5775
5932 5933 5934 5935 5936 5934 5930 5931 5930 5926 5924 5921 5927 5923 5913 5903 5896 5894 5882 5885 5881 5876 5875 5872 5867 5858 5856 5855 5848 5842 5836 5830 5826 5821 5816 5810 5804 5799 5794 5788 5783 5778 5774 5770
5929 5930 5930 5931 5932 5933 5925 5928 5927 5925 5923 5919 5921 5920 5905 5902 5898 5891 5879 5881 5859 5870 5867 5864 5862 5857 5849 5848 5844 5838 5833 5828 5822 5817 5811 5806 5800 5794 5789 5783 5778 5774 5770 5766
5925 5927 5927 5928 5928 5926 5925 5926 5926 5926 5922 5918 5917 5916 5904 5899 5897 5882 5879 5844 5869 5871 5867 5861 5856 5854 5849 5843 5840 5835 5830 5824 5819 5812 5806 5801 5795 5789 5784 5779 5774 5769 5765 5760
5921 5922 5923 5924 5925 5923 5922 5918 5920 5918 5917 5915 5912 5908 5903 5898 5892 5890 5880 5877 5873 5869 5861 5859 5852 5850 5847 5840 5837 5830 5826 5821 5815 5808 5802 5795 5789 5784 5779 5775 5770 5765 5760 5755
5919 5919 5920 5920 5920 5920 5922 5916 5914 5913 5913 5908 5907 5902 5897 5889 5888 5885 5883 5876 5871 5865 5859 5853 5850 5847 5845 5838 5832 5827 5821 5817 5811 5804 5798 5791 5785 5780 5775 5770 5765 5759 5754 5749
5917 5916 5916 5915 5915 5915 5915 5906 5906 5906 5904 5903 5900 5896 5894 5888 5882 5881 5877 5872 5867 5861 5857 5853 5847 5843 5839 5834 5828 5822 5817 5811 5805 5800 5793 5787 5782 5776 5771 5765 5759 5753 5747 5741
5911 5909 5912 5912 5911 5913 5910 5898 5895 5890 5894 5894 5891 5891 5889 5885 5878 5876 5872 5868 5863 5858 5853 5849 5845 5840 5836 5830 5823 5817 5812 5806 5801 5795 5790 5784 5777 5770 5765 5760 5753 5747 5740 5734
5905 5899 5902 5904 5905 5909 5896 5893 5892 5892 5870 5888 5887 5884 5882 5879 5876 5872 5868 5864 5860 5856 5851 5846 5841 5835 5829 5823 5818 5812 5807 5802 5795 5790 5785 5778 5771 5766 5760 5754 5747 5741 5735 5729
5902 5903 5903 5900 5892 5890 5886 5887 5888 5889 5886 5884 5881 5878 5876 5872 5870 5867 5864 5861 5856 5852 5847 5842 5837 5831 5825 5818 5811 5807 5803 5797 5792 5786 5779 5773 5767 5761 5755 5748 5742 5736 5729 5723
5896 5892 5891 5897 5890 5888 5887 5883 5882 5880 5880 5879 5878 5875 5872 5868 5865 5860 5855 5853 5852 5845 5841 5835 5830 5826 5818 5811 5805 5800 5796 5792 5787 5779 5773 5768 5762 5755 5749 5742 5734 5729 5723 5717
5883 5885 5884 5882 5883 5880 5873 5872 5873 5871 5874 5874 5872 5869 5866 5863 5860 5858 5854 5846 5842 5837 5834 5830 5823 5818 5810 5803 5792 5779 5786 5787 5780 5772 5767 5761 5756 5750 5743 5737 5731 5724 5719 5713
5882 5882 5878 5881 5879 5880 5870 5870 5834 5849 5864 5865 5864 5863 5861 5857 5855 5852 5849 5843 5835 5832 5825 5822 5817 5811 5806 5797 5791 5782 5780 5776 5771 5767 5762 5755 5749 5743 5738 5733 5726 5720 5713 5704
5878 5872 5873 5871 5866 5868 5867 5871 5836 5855 5862 5860 5858 5856 5853 5850 5849 5845 5842 5837 5829 5824 5821 5815 5813 5806 5802 5795 5789 5782 5776 5772 5768 5762 5756 5750 5745 5740 5733 5727 5722 5716 5707 5699
Wind_Speed
15 20 15 14 19 12 11 11 10 6 15 16 16 18 17 15 14 14 17 14 15 16 18 20 19 19 21 23 25 26 27 27 26 25 25 25 24 25 27 27 23 24 26 28
4 9 7 12 10 2 16 10 18 19 15 13 17 10 18 19 14 14 14 18 17 16 18 19 20 21 22 24 25 26 27 28 27 26 26 26 26 26 28 29 26 24 25 27
8 5 16 8 9 13 7 12 10 11 13 3 15 16 23 22 17 16 16 16 16 15 16 18 20 22 23 25 26 27 27 28 28 28 27 27 26 25 27 28 28 26 25 27
8 6 13 4 11 14 20 14 13 10 11 20 4 10 24 20 15 15 18 19 16 16 17 18 20 24 25 25 26 27 28 28 29 28 29 29 29 29 29 30 30 27 26 27
6 9 15 8 12 7 9 22 14 10 12 16 3 11 21 30 25 21 15 17 17 18 18 19 22 24 26 25 26 27 28 30 31 30 30 29 30 29 28 29 30 29 26 27
14 10 11 10 10 10 12 17 23 17 25 21 22 12 19 20 26 23 28 19 19 21 21 23 24 26 29 28 27 28 29 29 30 31 32 32 31 31 30 29 30 30 29 27
9 10 16 9 7 18 7 11 20 21 28 29 18 18 10 22 21 21 25 29 23 22 25 22 26 28 27 30 30 28 30 30 31 31 33 33 32 31 31 30 30 29 30 29
11 18 19 8 9 10 14 15 17 15 13 15 27 24 23 21 19 15 24 28 32 26 29 28 27 26 28 29 30 31 31 33 32 32 32 32 33 33 31 30 30 30 30 31
14 27 27 11 6 11 16 13 11 17 12 14 27 23 24 25 25 35 30 28 29 29 26 31 29 29 30 31 33 33 33 34 34 33 33 34 33 34 32 32 31 31 30 30
15 20 23 2 8 9 18 17 16 18 22 17 6 18 36 20 12 27 27 32 29 29 25 26 30 29 32 32 34 35 34 33 33 33 33 33 33 33 33 31 30 31 31 31
15 19 10 18 23 12 19 14 18 25 20 15 20 23 28 19 20 29 18 38 31 31 29 31 32 30 34 36 34 37 36 34 32 32 34 35 35 34 33 32 30 32 31 31
16 24 21 18 19 24 18 14 22 32 23 8 12 23 28 36 36 34 26 21 30 26 25 30 36 31 35 36 43 41 36 35 35 33 33 35 37 37 35 33 30 31 30 30
23 21 22 14 12 32 21 20 23 22 22 13 23 27 39 44 43 27 24 27 26 23 23 25 34 35 29 39 36 36 32 32 33 35 35 35 36 37 35 33 31 30 29 29
19 20 18 16 16 21 28 18 24 22 23 16 19 30 31 40 45 41 46 36 20 28 28 28 31 41 38 32 34 35 33 34 34 34 36 37 40 37 35 35 33 30 29 29
16 13 15 10 9 13 28 18 21 26 24 20 33 21 34 38 41 32 36 17 18 32 33 39 37 40 44 31 34 34 33 33 35 36 38 39 40 36 37 35 31 28 28 28
15 13 14 12 9 22 22 21 11 19 27 18 26 17 24 32 33 29 37 20 49 31 35 33 34 34 28 31 34 34 31 32 33 40 42 40 42 39 36 30 28 27 27 27
16 14 14 7 15 16 19 13 10 25 30 29 27 25 26 32 32 34 40 41 42 44 36 34 26 30 32 37 36 35 32 34 38 39 38 38 37 33 30 29 28 29 29 31
18 17 16 13 12 16 15 27 30 33 26 19 27 25 25 32 31 32 32 32 35 37 26 26 30 31 32 35 34 33 35 37 39 39 41 37 33 33 32 32 33 33 32 32
22 23 22 21 21 22 12 33 24 31 34 32 24 20 24 25 32 27 27 25 28 30 29 29 31 33 33 34 34 35 36 38 39 36 38 34 36 37 36 35 38 36 37 34
25 32 29 27 27 20 23 35 24 17 32 28 22 27 26 24 30 31 29 29 30 33 31 32 33 36 37 35 35 35 36 37 34 36 39 40 34 34 32 33 38 39 36 35
29 22 15 22 23 15 33 34 36 42 7 23 22 25 30 29 30 32 32 32 31 31 31 33 35 38 41 40 37 35 33 34 33 37 42 43 35 37 31 32 40 40 36 33
29 27 26 29 22 33 31 39 43 25 23 23 24 28 29 33 32 33 33 30 32 32 33 35 37 38 40 40 37 33 34 31 35 37 35 44 40 38 34 36 41 36 36 35
35 33 37 30 38 37 35 35 40 25 20 25 28 31 33 31 33 37 40 37 32 37 36 38 41 41 42 40 38 32 31 38 37 37 38 42 35 36 37 42 37 32 37 38
18 32 36 33 28 35 38 39 33 23 22 27 29 33 36 35 30 31 34 40 45 42 39 41 44 43 42 42 41 47 24 40 35 39 43 39 35 39 38 34 38 39 38 39
20 33 36 29 34 24 34 40 10 20 23 30 32 34 31 29 31 33 34 42 50 48 42 43 42 40 39 44 41 46 42 43 45 44 40 37 38 34 33 37 37 39 41 46
21 24 32 35 41 38 36 32 39 27 28 32 32 32 33 38 34 37 38 45 51 38 41 42 36 38 41 39 36 40 42 41 41 36 33 32 32 36 35 37 39 42 45 48
Wind_Direction
26 335 360 343 354 15 330 298 259 334 339 343 36 345 32 24 7 4 352 2 359 7 3 8 5 359 350 351 351 353 351 347 343 336 333 333 335 335 338 340 333 333 336 341
5 297 343 299 328 44 268 333 2 345 341 354 10 10 348 11 354 354 355 342 353 3 11 5 7 4 359 354 355 353 350 346 345 340 334 333 333 334 336 339 334 336 335 340
251 343 280 286 324 282 339 332 16 325 335 322 356 9 332 346 344 340 340 344 341 355 3 7 9 8 2 356 355 352 348 346 344 341 337 334 332 329 331 335 336 336 337 339
281 274 282 241 289 315 321 332 349 319 311 293 353 356 317 328 341 330 333 334 339 345 352 360 5 2 360 355 353 349 347 344 342 340 338 337 335 333 332 335 336 335 337 339
247 272 271 297 289 305 309 304 301 359 327 296 352 35 286 313 349 343 345 338 335 334 349 348 356 358 352 351 346 343 343 342 341 339 337 338 335 331 331 333 333 334 336 337
251 272 279 262 307 310 332 323 318 1 357 338 64 46 287 327 331 325 328 337 335 331 336 342 346 351 342 345 342 337 336 335 336 337 336 337 336 333 331 330 332 333 335 336
262 260 291 275 307 280 338 318 320 336 350 334 355 323 295 284 323 330 326 323 324 327 324 335 341 344 343 337 337 335 330 329 329 332 335 336 334 333 331 329 329 331 334 336
248 261 242 293 291 284 292 308 288 354 339 324 325 323 318 294 316 334 334 326 319 323 322 328 334 336 335 333 332 329 328 327 326 327 329 333 333 332 331 329 328 329 334 335
257 261 265 289 283 283 296 302 329 300 305 329 328 332 330 335 317 316 333 330 319 318 322 324 326 332 332 335 331 328 326 324 326 326 328 329 332 330 329 329 328 326 329 332
249 285 315 236 246 300 314 272 302 294 303 318 249 301 319 332 277 312 324 326 324 315 317 316 321 332 327 329 327 324 324 323 321 323 325 326 330 329 328 326 325 325 327 331
238 253 278 290 303 270 248 343 313 308 308 337 323 312 306 295 297 311 323 322 323 316 319 325 324 332 325 324 327 326 325 321 321 323 324 326 327 329 327 327 328 322 324 329
253 244 229 247 288 305 290 262 282 292 284 282 324 316 304 314 318 321 352 329 319 317 326 327 322 330 329 331 325 325 320 322 323 324 327 327 327 329 328 326 323 320 322 327
246 247 255 253 251 273 259 335 321 318 313 333 355 321 317 319 308 317 264 319 314 305 312 323 323 329 335 330 325 327 328 324 322 323 326 327 327 329 327 324 324 319 320 324
255 254 263 265 257 305 305 322 323 326 342 336 320 320 308 299 306 308 303 321 310 315 322 322 330 326 321 326 328 330 328 324 325 325 326 328 327 328 329 328 324 319 319 322
253 260 259 263 272 290 296 316 314 326 333 319 295 313 296 296 316 316 328 302 302 338 332 326 330 329 327 330 323 325 324 325 326 328 327 325 323 325 325 324 323 321 320 324
256 261 265 273 267 259 261 262 264 276 267 274 302 313 292 299 315 322 308 341 331 320 308 313 324 336 335 332 327 325 328 329 327 326 325 325 325 325 323 325 324 322 319 320
251 251 258 273 273 286 310 318 260 262 288 296 301 302 299 299 306 311 313 317 314 322 320 309 342 337 325 324 330 328 329 331 329 331 330 325 326 325 325 323 322 318 316 314
262 263 262 268 248 270 295 291 289 295 284 293 308 309 297 304 318 318 319 319 320 323 333 338 335 327 323 323 325 321 323 325 325 325 327 327 328 327 327 324 322 315 312 312
272 272 266 260 271 280 267 275 282 292 296 303 317 328 304 305 317 328 324 331 330 326 332 331 328 323 325 324 320 318 320 322 323 326 331 326 326 320 318 320 327 326 309 302
273 269 259 264 268 260 276 281 268 256 273 293 318 311 314 318 317 322 322 326 327 328 328 329 328 324 325 324 320 316 318 319 322 327 326 324 333 327 324 327 328 337 328 314
262 281 244 264 262 267 266 267 278 288 274 304 314 316 320 322 320 316 318 323 325 325 323 324 326 325 324 323 321 319 320 318 321 327 328 333 339 332 322 328 331 332 329 332
266 269 270 286 259 237 263 269 282 300 300 304 314 315 317 320 318 315 315 319 321 323 320 321 323 320 320 320 317 316 319 315 320 324 322 330 333 329 324 324 326 324 327 325
244 257 252 256 267 269 268 274 281 291 292 301 305 308 313 314 315 318 319 318 317 318 323 321 320 324 323 322 318 316 317 332 325 329 331 332 326 330 331 326 322 330 328 329
230 268 281 259 256 281 291 303 296 283 289 294 301 307 312 310 308 311 315 320 327 314 316 319 322 325 324 322 315 309 314 333 330 333 332 332 328 330 333 336 334 331 329 327
284 269 277 272 278 269 260 283 219 295 299 300 304 307 312 321 320 312 308 314 310 312 314 321 322 323 324 321 331 323 327 331 334 330 330 330 331 335 336 333 332 329 327 325
244 257 268 262 278 276 275 290 238 300 293 295 302 305 303 314 305 314 312 309 311 313 315 315 322 321 322 322 319 321 323 327 327 330 338 338 337 334 336 333 329 326 325 324